Dewpoint
-6 -6 -6 -7 -6 -6 -3 -3 -0 -2 0 2 3 6 8 8 7 7 9 10 10 10 11 12 13 14 15 15 16 17 17 17 18 17 17 17 16 16 16 15 15 16 16 15
-5 -4 -8 -9 -9 -7 -7 -6 -2 -2 -1 0 2 7 6 7 7 6 7 8 8 9 10 12 13 14 14 15 16 16 17 18 18 17 17 15 17 15 14 15 16 16 15 15
-7 -7 -8 -8 -8 -7 -7 -7 -7 -3 -1 -1 5 5 8 6 6 6 6 7 7 8 9 10 12 13 13 15 16 16 17 18 18 16 16 16 14 14 12 11 13 13 14 14
-10 -12 -10 -10 -8 -8 -6 -8 -7 -6 -0 3 -1 4 9 9 6 5 6 7 7 7 8 8 9 11 11 13 16 17 18 18 17 14 13 12 9 9 12 11 11 11 12 14
-9 -10 -8 -7 -8 -8 -4 -7 -7 -6 -3 0 3 4 9 6 10 8 5 6 8 8 8 8 7 9 10 13 15 17 18 14 8 13 5 10 9 8 9 10 11 12 11 13
-9 -8 -9 -8 -9 -8 -4 -3 -3 -2 -2 2 3 7 2 10 11 9 7 5 6 8 8 9 9 10 11 14 15 17 15 5 7 12 12 11 11 11 9 10 11 11 10 11
-6 -7 -9 -10 -7 -6 -4 -3 1 2 2 3 -1 -1 2 -3 1 0 5 7 6 7 8 9 10 11 13 14 15 14 13 0 2 11 10 9 10 11 12 13 11 10 10 10
-3 -4 -8 -8 -7 -5 -4 -4 -1 3 1 -1 -1 1 -3 -7 -2 2 3 4 7 8 8 9 10 12 14 14 14 12 9 -3 9 11 11 9 11 10 10 11 12 11 11 10
-4 -5 -8 -8 -8 -6 -4 -4 -6 -5 -3 -1 -2 -2 -4 1 0 2 2 4 7 9 10 10 11 13 14 14 13 12 -2 5 12 11 14 13 13 13 12 9 11 11 11 11
-7 -3 -7 -9 -9 -7 -4 -6 -4 -4 0 2 -1 -2 -3 2 -0 -2 1 3 6 9 10 10 10 13 13 14 12 11 8 8 12 11 12 10 10 12 13 12 12 12 12 12
-9 -6 -5 -7 -6 -5 -5 -3 -3 -3 0 1 1 -0 -3 -2 -3 -2 -1 1 5 8 11 10 11 12 13 13 11 10 11 12 12 12 12 11 11 11 12 12 11 12 12 12
-9 -7 -4 -5 -7 -8 -7 -5 -4 0 3 0 -0 -0 -4 -4 -4 -2 -1 1 4 9 11 10 11 12 13 12 11 10 9 10 11 11 11 11 11 12 11 11 11 11 11 12
-9 -7 -3 -3 -4 -7 -6 -6 -5 -4 -3 5 4 2 -1 -2 -1 -0 1 -0 4 8 11 10 10 12 13 11 11 10 8 8 9 10 11 11 12 12 12 12 11 11 11 11
-7 -7 -5 -5 -3 -4 -2 -5 -5 -4 0 0 2 1 2 0 1 1 1 2 3 7 10 10 9 11 14 12 11 9 8 7 8 9 8 10 11 12 12 12 12 11 11 11
-7 -2 -4 -6 -8 -6 -5 -4 -5 -2 -2 0 -1 2 0 -0 -0 0 -1 -1 2 6 9 10 9 9 13 12 12 10 9 8 8 9 9 10 11 12 12 12 12 11 11 11
-3 -1 -2 -3 -6 -8 -6 -6 -5 -4 -4 -3 -3 -1 -2 -2 -2 -2 -2 -2 -1 2 8 10 10 10 12 12 12 11 9 9 10 10 10 10 11 11 12 12 11 11 11 10
1 -1 1 2 -3 -4 -3 -4 -5 -4 -4 -3 -1 -1 -0 -0 -1 -1 0 1 1 1 5 9 11 11 11 12 12 11 9 9 9 11 11 11 11 12 12 11 11 11 11 10
3 5 2 2 0 3 -2 -5 -4 -4 -3 -2 -1 -1 -1 -2 -2 -1 1 2 4 3 3 7 10 11 12 12 12 8 8 9 9 11 11 11 11 11 11 11 11 11 10 11
-1 5 3 4 3 2 -0 1 -1 -1 0 -1 -0 -0 -0 -3 -1 -1 1 4 6 7 6 7 10 11 11 11 9 6 8 8 10 11 11 12 11 11 11 11 11 10 11 10
-1 2 4 3 5 5 3 0 -1 -1 2 -2 -1 -0 -1 -2 1 6 6 6 7 8 9 10 10 11 12 10 6 6 8 9 9 11 11 11 11 10 11 11 11 11 10 10
3 3 2 0 3 1 -2 0 1 6 6 1 -1 -1 -2 0 0 6 6 7 8 9 10 10 10 11 10 7 5 5 6 8 9 10 10 10 10 10 11 12 10 8 11 10
6 4 1 1 3 5 -0 -0 2 7 3 2 1 1 0 -0 -0 2 5 7 7 8 10 10 10 9 8 7 7 7 8 9 10 11 10 10 9 11 8 6 8 12 11 11
5 6 7 7 8 6 3 5 4 3 3 3 2 2 2 1 -0 0 4 7 8 8 8 9 9 8 7 8 10 12 12 13 13 12 11 11 12 10 10 9 12 12 9 9
4 3 2 4 5 4 2 2 4 4 3 3 2 3 3 3 3 3 6 8 8 8 8 8 8 8 9 11 13 14 14 13 13 13 13 13 12 11 11 11 10 9 8 9
2 3 2 2 3 4 4 4 3 3 4 4 4 4 5 5 4 6 8 9 10 10 10 10 10 10 10 12 13 13 14 14 14 13 12 11 10 9 9 10 9 9 8 7
-1 1 2 4 4 4 4 2 2 3 4 4 4 6 7 7 7 8 9 9 9 10 10 10 5 9 12 12 12 13 13 13 12 11 10 9 8 8 6 8 8 8 6 5
Wind_Speed
22 14 16 18 18 16 13 14 14 7 13 12 6 16 15 17 16 17 20 20 17 16 16 15 14 12 11 10 8 7 7 9 8 6 6 7 8 9 10 12 13 14 14 14
18 20 18 16 12 15 9 13 11 11 9 7 6 14 14 17 16 18 19 20 21 20 20 18 16 13 12 11 10 9 7 7 6 6 7 8 5 7 9 10 10 8 9 11
19 22 19 15 14 12 15 16 14 8 11 13 12 13 16 16 19 17 19 20 22 23 23 21 18 16 13 11 11 9 8 6 5 5 6 7 6 7 7 6 6 7 10 13
16 17 19 16 16 16 18 15 12 10 9 13 17 12 18 17 17 20 23 24 22 23 22 22 21 20 17 13 11 10 8 6 4 3 6 10 9 8 8 10 10 16 12 11
20 17 15 18 18 19 6 13 9 15 13 16 14 13 17 9 18 21 24 25 25 24 23 24 23 22 19 16 13 11 10 5 7 4 4 5 7 8 7 9 11 10 9 10
18 14 18 18 17 14 11 8 8 11 11 13 15 9 12 18 27 23 26 29 29 27 26 23 23 23 22 19 16 14 10 4 3 3 2 4 5 5 6 8 8 8 9 8
20 21 23 17 16 12 13 12 8 9 11 13 7 11 7 7 9 7 22 30 32 30 29 27 26 25 24 22 19 15 11 6 4 4 3 4 6 6 7 7 7 10 7 8
15 18 20 14 14 11 15 14 11 7 10 11 9 8 12 10 9 7 11 28 28 29 29 29 28 27 24 23 21 18 13 8 7 6 4 6 6 4 8 7 8 7 8 8
18 19 20 21 20 19 15 16 17 13 5 10 4 12 9 9 7 5 10 13 28 30 29 29 29 28 26 25 23 20 14 10 8 7 6 4 6 7 7 11 9 7 11 8
13 14 26 21 22 14 9 11 10 7 8 10 9 6 5 10 9 9 10 12 17 28 30 29 30 28 27 26 23 19 16 11 9 7 6 6 7 7 7 8 8 9 10 10
17 11 17 17 14 16 13 11 12 13 7 6 6 4 14 6 7 4 6 7 14 23 28 30 30 30 28 26 24 21 17 13 10 8 7 7 6 6 8 8 8 9 11 12
19 9 14 21 19 21 20 22 17 10 11 8 9 4 6 5 6 4 3 4 11 19 26 30 31 31 29 29 26 23 19 14 11 9 9 8 7 7 7 9 10 10 11 12
19 15 13 18 18 13 15 18 20 21 15 17 8 4 8 4 1 2 8 8 12 17 25 30 30 32 31 31 28 24 20 15 12 10 8 8 8 8 9 9 9 10 11 13
11 18 16 16 20 17 20 21 18 20 13 12 17 7 14 11 5 3 8 9 13 18 26 31 32 34 32 32 30 25 20 15 13 11 9 9 10 9 9 10 10 10 12 15
15 15 17 21 24 21 20 22 22 22 19 18 14 8 10 8 8 8 13 13 11 17 23 29 32 33 32 31 30 25 20 16 13 12 10 9 10 10 10 11 11 12 14 15
16 14 17 20 20 22 20 19 23 22 21 18 19 16 5 4 5 10 12 15 17 19 22 25 29 29 32 31 29 25 21 16 14 12 10 10 10 11 11 11 11 13 14 14
14 14 14 18 19 21 16 16 19 19 18 16 17 9 7 7 12 12 13 14 15 19 17 23 28 30 32 30 28 26 20 16 16 13 12 12 11 11 10 10 12 13 13 14
9 12 12 13 17 21 13 12 12 18 14 9 10 8 5 9 12 13 12 14 15 17 18 21 25 28 29 28 26 23 17 17 16 15 14 13 12 12 11 12 13 14 13 14
5 9 11 13 14 11 12 5 12 13 14 8 6 7 7 12 8 20 10 5 6 11 14 18 22 26 28 26 26 22 17 16 16 17 17 15 13 13 13 14 14 14 14 15
12 9 11 13 17 19 17 3 3 8 11 12 12 6 5 10 8 9 5 4 4 4 8 14 20 24 25 25 23 19 17 18 21 20 17 15 15 14 14 15 14 13 15 15
14 11 14 14 16 17 11 17 28 19 4 8 5 0 5 7 8 2 3 5 7 9 12 17 21 23 24 24 20 19 19 21 23 19 18 17 15 15 15 16 18 16 16 15
8 15 15 15 19 19 5 13 14 6 5 9 6 5 7 13 15 12 9 10 11 13 15 19 20 21 21 19 17 18 20 21 19 20 19 18 17 16 15 18 18 13 14 17
14 5 4 6 5 11 13 11 8 7 7 7 10 13 16 19 23 21 14 14 15 16 17 18 19 18 16 14 13 14 16 16 18 20 21 19 17 15 15 13 14 13 17 17
11 3 5 5 9 9 6 7 8 9 10 12 13 15 17 20 20 23 10 13 14 15 16 17 17 15 12 10 11 12 12 12 14 17 16 15 16 15 11 14 14 18 17 14
5 1 4 10 5 1 10 9 11 9 8 9 11 13 16 18 19 17 11 11 10 10 11 11 10 10 8 5 5 5 7 10 10 11 12 12 13 14 13 13 14 15 16 19
9 6 6 3 8 7 8 10 10 10 9 10 10 10 9 10 12 10 11 12 12 12 8 6 5 1 1 4 5 5 5 6 7 10 12 13 13 14 16 13 11 14 14 13
Wind_Direction
200 211 211 197 215 224 186 235 214 170 159 189 211 139 156 178 169 169 169 173 176 175 164 167 167 167 168 174 181 186 202 201 205 227 243 256 268 269 266 266 279 280 284 281
189 217 210 202 220 246 262 214 232 162 149 240 174 153 167 183 188 176 173 179 173 172 169 172 177 177 176 177 181 185 188 202 205 263 257 265 276 272 271 274 271 293 280 278
204 207 228 215 215 224 231 250 219 184 181 237 156 222 165 190 191 187 184 185 178 177 176 180 184 185 180 179 179 185 189 203 233 262 304 297 304 296 291 278 280 274 280 285
226 211 205 213 219 211 222 227 224 211 207 216 214 246 172 187 206 193 197 188 190 186 188 187 186 186 184 183 180 183 180 192 228 244 264 267 285 279 272 287 279 273 294 278
214 188 185 202 208 199 251 176 218 251 213 267 166 244 168 216 205 205 206 202 197 193 193 192 190 186 185 183 181 181 183 184 231 246 222 278 281 276 286 278 288 302 318 308
215 191 198 200 211 193 131 190 201 234 247 229 219 235 187 193 208 201 200 210 204 198 197 196 192 184 184 183 181 182 182 216 227 198 262 304 300 283 277 276 301 311 301 296
225 193 199 218 183 150 201 194 207 217 221 240 208 231 240 326 170 239 193 203 205 206 201 199 193 183 184 184 182 183 190 204 225 198 245 295 289 290 293 297 304 293 309 298
198 188 201 195 196 179 219 210 233 181 234 227 122 237 261 250 346 169 257 196 205 202 206 202 198 187 191 189 184 182 191 201 203 203 230 301 293 301 283 298 283 300 291 296
196 198 188 197 211 190 192 232 241 286 199 273 228 200 193 161 187 228 222 232 196 200 206 205 199 192 195 194 190 186 188 195 196 212 230 283 287 286 265 263 289 301 291 298
196 209 186 203 208 208 276 190 231 240 267 243 244 215 267 148 208 205 209 227 235 199 198 207 203 196 199 198 195 190 189 191 198 211 242 282 276 268 267 276 279 282 288 292
258 243 174 196 209 197 209 236 235 261 249 285 259 235 115 129 144 198 214 223 222 216 194 207 203 200 200 199 198 193 190 190 199 217 238 258 266 249 262 269 277 284 288 289
229 231 240 186 204 224 228 205 227 237 226 255 290 301 94 128 139 147 302 215 217 210 201 207 203 200 201 201 201 198 196 194 207 219 235 252 257 248 256 270 279 288 288 288
212 232 231 238 208 217 247 244 217 217 230 200 236 200 104 96 154 316 306 275 199 216 203 207 206 201 203 203 202 201 199 203 215 227 239 250 249 248 256 271 282 289 291 295
236 234 229 244 227 205 210 239 250 260 235 241 215 227 175 192 163 299 265 245 263 207 211 207 208 205 204 203 201 200 199 204 216 222 236 244 249 247 256 269 276 288 293 294
227 232 241 238 258 221 223 212 223 241 249 268 275 171 273 26 353 328 294 282 254 241 222 210 210 206 199 198 198 200 198 200 207 219 231 242 252 248 261 272 277 290 295 297
209 232 235 247 252 243 242 228 222 219 230 251 264 274 348 306 330 297 280 272 257 239 233 227 213 209 199 199 199 199 195 198 209 215 227 236 245 249 260 270 278 285 291 295
201 234 231 239 236 247 241 244 253 252 234 237 263 285 29 337 306 299 292 279 269 263 235 223 215 210 195 198 198 198 193 197 206 216 227 232 240 245 254 266 274 279 284 287
192 221 249 242 236 238 234 239 281 250 243 223 248 289 317 300 287 290 278 271 266 258 240 222 215 207 197 199 199 196 195 201 210 220 224 229 236 240 250 260 270 275 278 284
231 270 231 252 251 216 221 190 228 242 254 224 233 267 287 291 307 279 233 237 254 252 237 218 206 198 191 195 193 195 198 211 216 222 225 226 233 239 249 259 262 268 269 282
260 212 266 249 264 245 275 263 20 334 240 223 203 184 260 285 289 80 118 159 150 170 188 188 183 182 185 190 193 200 209 217 223 228 229 231 235 238 246 257 269 280 277 277
213 231 238 235 255 261 298 132 191 214 201 36 50 217 281 271 297 337 193 164 151 157 168 171 175 183 186 189 197 213 225 227 235 232 234 237 238 239 249 256 265 242 262 270
216 210 220 246 253 247 145 164 219 55 53 36 17 332 318 307 285 252 235 203 180 167 175 177 179 183 187 196 211 227 236 242 244 238 237 241 239 234 258 278 279 255 266 269
214 352 8 0 51 50 50 90 52 358 5 350 323 302 295 287 277 267 215 215 206 187 186 185 186 187 195 206 226 243 249 248 243 241 239 242 242 243 262 266 263 266 284 271
298 350 282 302 116 67 53 62 30 15 354 331 310 295 285 271 267 260 219 206 207 192 187 188 192 197 207 224 242 259 259 250 244 239 234 243 246 258 265 260 278 281 280 272
37 328 260 258 219 249 96 37 6 3 354 327 312 296 281 268 251 238 193 194 184 178 170 175 184 193 184 197 226 236 235 227 231 226 226 234 249 270 270 258 262 255 272 278
273 287 268 348 35 342 55 2 5 7 350 330 317 311 290 265 233 176 173 180 167 155 156 153 134 211 154 170 175 188 200 216 224 234 247 259 267 276 283 281 262 259 262 278
Height
1485 1483 1482 1476 1473 1469 1472 1480 1482 1480 1483 1491 1493 1505 1511 1515 1518 1521 1525 1531 1535 1538 1544 1549 1552 1555 1557 1559 1561 1562 1563 1563 1564 1563 1563 1564 1564 1564 1565 1564 1565 1563 1562 1561
1482 1482 1471 1470 1473 1474 1478 1480 1480 1477 1481 1490 1491 1496 1504 1512 1513 1518 1523 1527 1530 1535 1541 1546 1550 1553 1555 1557 1559 1561 1562 1562 1562 1564 1562 1562 1562 1565 1564 1563 1562 1561 1561 1560
1473 1473 1469 1470 1474 1480 1483 1481 1480 1483 1485 1489 1494 1499 1500 1506 1511 1515 1519 1524 1526 1531 1535 1541 1546 1549 1552 1555 1557 1559 1560 1561 1561 1561 1562 1561 1561 1560 1561 1561 1561 1560 1557 1557
1468 1464 1470 1471 1478 1479 1486 1473 1475 1480 1490 1502 1485 1506 1497 1502 1508 1509 1514 1518 1522 1526 1531 1536 1541 1545 1549 1553 1555 1557 1558 1559 1559 1560 1561 1560 1560 1560 1559 1558 1558 1555 1554 1553
1470 1461 1468 1474 1472 1471 1475 1466 1477 1480 1484 1488 1491 1499 1498 1499 1500 1502 1507 1512 1517 1522 1526 1530 1535 1540 1545 1549 1553 1555 1556 1556 1557 1557 1558 1558 1558 1558 1557 1556 1554 1552 1551 1549
1457 1460 1463 1464 1463 1467 1470 1476 1479 1480 1482 1502 1484 1509 1481 1492 1487 1489 1498 1505 1511 1516 1522 1526 1531 1536 1542 1546 1550 1552 1552 1553 1554 1555 1556 1555 1555 1554 1554 1553 1551 1551 1549 1548
1459 1458 1458 1458 1464 1467 1474 1480 1503 1508 1502 1500 1470 1482 1478 1468 1472 1478 1482 1495 1502 1510 1516 1522 1526 1532 1538 1543 1546 1549 1549 1551 1552 1553 1554 1554 1553 1552 1550 1550 1550 1548 1548 1547
1467 1478 1455 1457 1460 1472 1475 1472 1485 1514 1500 1485 1473 1499 1482 1469 1473 1478 1482 1484 1497 1504 1511 1517 1523 1529 1536 1540 1542 1545 1546 1547 1549 1550 1551 1550 1550 1550 1550 1550 1547 1547 1546 1544
1457 1460 1448 1454 1455 1459 1471 1479 1458 1473 1471 1485 1473 1470 1466 1471 1476 1481 1481 1484 1487 1497 1507 1513 1519 1525 1533 1537 1539 1540 1541 1544 1546 1548 1548 1547 1548 1547 1546 1546 1545 1545 1543 1543
1433 1457 1440 1447 1452 1453 1458 1460 1481 1474 1505 1503 1479 1478 1477 1473 1475 1475 1479 1484 1486 1488 1500 1508 1514 1521 1528 1533 1536 1537 1538 1540 1543 1545 1546 1546 1545 1545 1544 1544 1543 1542 1541 1539
1432 1439 1448 1446 1456 1459 1466 1469 1463 1460 1471 1487 1492 1474 1453 1466 1469 1473 1476 1481 1483 1485 1495 1504 1510 1517 1524 1528 1532 1534 1535 1537 1539 1541 1542 1542 1542 1542 1542 1541 1541 1540 1539 1537
1436 1440 1455 1449 1445 1449 1448 1457 1463 1480 1486 1475 1478 1476 1455 1462 1466 1472 1477 1478 1482 1484 1492 1499 1505 1511 1518 1523 1527 1529 1531 1533 1536 1538 1539 1539 1538 1538 1539 1539 1538 1536 1535 1534
1434 1445 1459 1458 1447 1444 1452 1449 1446 1450 1455 1480 1486 1475 1459 1464 1468 1471 1475 1475 1479 1485 1489 1495 1499 1505 1511 1517 1521 1524 1527 1529 1533 1534 1535 1535 1535 1535 1535 1535 1535 1533 1532 1530
1433 1437 1449 1455 1450 1442 1458 1454 1448 1448 1460 1461 1465 1462 1461 1458 1463 1468 1472 1475 1476 1480 1484 1488 1493 1498 1505 1511 1516 1520 1523 1526 1529 1531 1532 1532 1532 1532 1532 1532 1532 1531 1530 1528
1433 1444 1440 1436 1433 1430 1438 1445 1448 1452 1451 1462 1451 1467 1456 1457 1464 1467 1472 1473 1473 1476 1480 1483 1487 1492 1498 1506 1511 1516 1518 1521 1525 1527 1528 1528 1529 1529 1529 1529 1528 1528 1527 1524
1432 1442 1439 1442 1428 1429 1432 1430 1432 1439 1443 1446 1446 1449 1446 1454 1460 1465 1468 1469 1470 1472 1475 1479 1484 1490 1494 1501 1507 1512 1514 1516 1520 1521 1523 1524 1525 1525 1526 1525 1525 1523 1522 1520
1431 1434 1440 1448 1429 1430 1441 1434 1433 1432 1431 1439 1452 1445 1448 1456 1461 1464 1466 1466 1467 1467 1469 1474 1478 1484 1489 1497 1503 1507 1509 1512 1515 1516 1518 1520 1521 1521 1522 1521 1520 1519 1518 1516
1427 1434 1433 1440 1435 1457 1427 1420 1424 1427 1428 1432 1440 1445 1453 1459 1460 1461 1462 1462 1463 1463 1464 1469 1474 1480 1486 1494 1500 1505 1506 1508 1510 1511 1513 1515 1516 1517 1517 1517 1516 1515 1513 1512
1427 1432 1435 1445 1443 1430 1426 1428 1431 1434 1436 1431 1440 1447 1453 1456 1456 1456 1456 1459 1460 1460 1461 1464 1470 1476 1484 1491 1496 1500 1502 1504 1505 1506 1508 1509 1511 1512 1512 1512 1510 1509 1508 1507
1429 1433 1440 1437 1449 1452 1437 1417 1423 1428 1444 1432 1436 1443 1452 1455 1457 1454 1458 1459 1458 1460 1461 1464 1468 1474 1482 1488 1492 1496 1497 1499 1500 1501 1503 1505 1506 1506 1506 1506 1508 1510 1509 1503
1434 1438 1440 1437 1442 1429 1416 1420 1432 1455 1452 1438 1439 1445 1450 1453 1455 1458 1460 1460 1460 1460 1463 1466 1469 1474 1479 1484 1489 1491 1492 1493 1494 1497 1499 1500 1501 1501 1501 1501 1500 1501 1501 1497
1427 1431 1432 1433 1438 1446 1420 1423 1439 1443 1441 1442 1445 1449 1451 1454 1454 1454 1459 1460 1460 1460 1463 1466 1469 1473 1478 1482 1485 1487 1489 1490 1493 1493 1494 1495 1495 1496 1496 1495 1493 1494 1493 1490
1429 1412 1423 1433 1445 1432 1432 1437 1440 1447 1446 1447 1450 1452 1453 1453 1452 1449 1450 1457 1458 1458 1462 1465 1469 1473 1476 1480 1482 1484 1485 1486 1487 1488 1489 1490 1491 1492 1491 1490 1490 1488 1486 1485
1428 1423 1423 1430 1434 1438 1441 1445 1449 1447 1446 1447 1449 1450 1450 1450 1450 1447 1447 1453 1456 1457 1460 1463 1466 1470 1473 1477 1479 1480 1481 1482 1483 1484 1484 1486 1487 1487 1487 1486 1486 1484 1483 1479
1426 1431 1429 1430 1434 1441 1443 1450 1449 1448 1449 1449 1450 1449 1448 1447 1446 1444 1448 1455 1457 1460 1461 1464 1466 1468 1469 1472 1476 1477 1478 1478 1478 1479 1480 1482 1483 1482 1481 1478 1480 1480 1478 1478
1429 1430 1434 1434 1448 1449 1450 1451 1450 1449 1450 1450 1450 1448 1446 1443 1442 1445 1453 1457 1458 1460 1466 1466 1460 1467 1469 1469 1471 1473 1474 1476 1477 1478 1478 1477 1477 1476 1476 1471 1472 1474 1474 1474